• MPC Preparation (Info)

  • MPEC 2020-F148 : 2020 FJ5

    The following Minor Planet Electronic Circular may be linked-to from your own Web pages, but must not otherwise be redistributed electronically.

    A form allowing access to any MPEC is at the bottom of this page.


    Read MPEC 2020-F147 Read MPEC 2020-F149


    M.P.E.C. 2020-F148                               Issued 2020 March 26, 03:45 UT
    
         The Minor Planet Electronic Circulars contain information on unusual
             minor planets and routine data on comets.  They are published
        on behalf of Division F of the International Astronomical Union by the
              Minor Planet Center, Smithsonian Astrophysical Observatory,
                              Cambridge, MA 02138, U.S.A.
    
                 Prepared using the Tamkin Foundation Computer Network
    
                                  MPC@CFA.HARVARD.EDU
                URL https://www.minorplanetcenter.net/    ISSN 1523-6714
    
                                    2020 FJ5                                 
    
    
    Observations:
         K20F05J  C2020 03 23.45991711 56 16.109+08 25 27.53         18.07GVEF148F51
         K20F05J  C2020 03 23.47179311 56 21.336+08 17 46.31         17.90GVEF148F51
         K20F05J  C2020 03 23.49538911 56 31.804+08 02 32.30         17.88GVEF148F51
         K20F05J* C2020 03 25.34077 12 11 32.64 -08 26 36.5                VEF148703
         K20F05J  C2020 03 25.34599 12 11 34.08 -08 28 51.3          18.7 GVEF148703
         K20F05J  C2020 03 25.35121 12 11 35.54 -08 31 07.3                VEF148703
         K20F05J  C2020 03 25.35644 12 11 37.04 -08 33 20.6          19.0 GVEF148703
         K20F05J  C2020 03 25.43831 12 12 01.57 -09 08 06.4          18.5 GVEF148I52
         K20F05J  C2020 03 25.43850 12 12 01.60 -09 08 10.9          18.6 GVEF148I52
         K20F05J  C2020 03 25.43868 12 12 01.67 -09 08 15.9          18.8 GVEF148I52
         K20F05J  C2020 03 25.43887 12 12 01.74 -09 08 20.7          18.5 GVEF148I52
         K20F05J bC2020 03 25.86999812 15 05.12 -12 02 27.4          19.0 GVEF148L01
         K20F05J bC2020 03 25.87119812 15 05.40 -12 02 54.3          18.9 GVEF148L01
         K20F05J bC2020 03 25.87332612 15 06.03 -12 03 43.1          19.1 GVEF148L01
         K20F05J bC2020 03 25.87439812 15 06.34 -12 04 08.2          18.7 GVEF148L01
         K20F05J KC2020 03 25.87923 12 15 07.13 -12 06 14.3          18.7 GVEF148113
         K20F05J KC2020 03 25.88387 12 15 08.47 -12 08 00.3                VEF148113
         K20F05J KC2020 03 25.88785 12 15 09.29 -12 09 32.2          19.4 VSEF148C43
         K20F05J KC2020 03 25.88988 12 15 09.91 -12 10 19.1          19.1 VSEF148C43
         K20F05J KC2020 03 25.89174 12 15 10.72 -12 11 00.2          18.8 GVEF148113
         K20F05J KC2020 03 25.89192 12 15 10.38 -12 11 05.4          18.2 VSEF148C43
         K20F05J KC2020 03 25.89396 12 15 10.92 -12 11 51.0          18.4 VSEF148C43
         K20F05J KC2020 03 25.89637 12 15 12.01 -12 12 47.0          19.3 GVEF148113
         K20F05J  C2020 03 25.90172 12 15 13.35 -12 14 43.8                VEF148246
         K20F05J  C2020 03 25.90186 12 15 13.41 -12 14 46.5          19.2 GVEF148246
         K20F05J  C2020 03 25.90214 12 15 13.54 -12 14 54.4                VEF148246
         K20F05J  C2020 03 25.93152 12 15 22.02 -12 26 06.4          18.5 VVEF148033
         K20F05J  C2020 03 25.93209 12 15 22.18 -12 26 19.1          18.4 VVEF148033
         K20F05J  C2020 03 25.93266 12 15 22.39 -12 26 32.0          18.9 VVEF148033
         K20F05J KC2020 03 25.93975 12 15 27.57 -12 28 52.3          19.0 VqEF148I93
         K20F05J KC2020 03 25.94506 12 15 29.00 -12 30 52.2          19.0 VqEF148I93
         K20F05J KC2020 03 25.95214 12 15 30.89 -12 33 32.2          18.9 VqEF148I93
         K20F05J KC2020 03 25.97134 12 15 33.62 -12 40 57.1          18.5 RVEF148A17
         K20F05J KC2020 03 25.97956 12 15 35.84 -12 44 00.8          18.3 RVEF148A17
         K20F05J KC2020 03 25.98686 12 15 37.81 -12 46 42.9          18.4 RVEF148A17
         K20F05J KC2020 03 25.98889112 15 40.68 -12 47 32.8          18.9 GVEF148J95
         K20F05J KC2020 03 25.99161312 15 41.40 -12 48 33.5          19.0 GVEF148J95
         K20F05J KC2020 03 25.99394212 15 42.01 -12 49 25.8          19.1 GVEF148J95
         K20F05J KC2020 03 25.99627012 15 42.68 -12 50 17.0          18.9 GVEF148J95
    
    Observer details:
    033 Karl Schwarzschild Observatory, Tautenburg.  Observers F. Ludwig, S. 
       Melnikov, B. Stecklum.  Measurer B. Stecklum.  1.34-m f/3 Schmidt + CCD.
    113 Volkssternwarte Drebach, Schoenbrunn.  Observer G. Lehmann.  0.5-m f/4.6 
       reflector + CCD.
    246 Klet Observatory-KLENOT.  Observers M. Tichy, J. Ticha.  Measurer M. Tichy. 
        1.06-m f/2.7 reflector + 2048x2048 CCD.
    703 Catalina Sky Survey.  Observer D. Rankin.  Measurers E. J. Christensen, G. 
       A. Farneth, D. C. Fuls, A. R. Gibbs, A. D. Grauer, H. Groeller, R. A. 
       Kowalski, S. M. Larson, G. J. Leonard, T. A. Pruyne, D. Rankin, R. L. Seaman,
        F. C. Shelly, K. W. Wierzchos.  0.68-m Schmidt + 10K CCD.
    A17 Guidestar Observatory, Weinheim.  Observers M. Emmerich, S. Melchert.  
        0.36-m f/6 Schmidt-Cassegrain + CCD.
    C43 Hoyerswerda.  Observer P. Lindner.  0.30-m f/6.3 Schmidt-Cassegrain + CCD.
    F51 Pan-STARRS 1, Haleakala.  Observers J. Bulger, K. Chambers, T. Lowe, A. 
       Schultz, M. Willman.  Measurers S. Chastel, M. Huber, Y. Ramanjooloo, R. 
       Wainscoat, R. Weryk.  1.8-m Ritchey-Chretien + CCD.
    I52 Steward Observatory, Mt. Lemmon Station.  Observer D. Rankin.  Measurers E. 
       J. Christensen, G. A. Farneth, D. C. Fuls, A. R. Gibbs, A. D. Grauer, H. 
       Groeller, R. A. Kowalski, S. M. Larson, G. J. Leonard, T. A. Pruyne, D. 
       Rankin, R. L. Seaman, F. C. Shelly, K. W. Wierzchos.  1.0-m reflector + CCD.
    I93 St Pardon de Conques.  Observer F. Losse.  0.40-m f/3.7 reflector + CCD.
    J95 Great Shefford.  Observer P. Birtwhistle.  0.41-m f/6.3 Schmidt-Cassegrain 
       + CCD.
    L01 Visnjan Observatory, Tican.  Observer K. Korlevic.  1.0-m f/2.9 reflector + 
       CCD.
    
    Orbital elements:
    2020 FJ5                                                 Earth MOID = 0.0188 AU
    Epoch 2020 May 31.0 TT = JDT 2459000.5                  Alexandersen
    M  45.33273              (2000.0)            P               Q
    n   0.48139691     Peri.  149.09344     -0.88995709     -0.45591993
    a   1.6123792      Node     3.82960     +0.37903597     -0.75246013
    e   0.3919232      Incl.    9.17418     +0.25359044     -0.47533227
    P   2.05           H   26.0           G   0.15           U   7
    Residuals in seconds of arc
    200323 F51  0.0   0.1+    200325 L01  0.1-  0.3+    200325 033  0.3-  0.5-
    200323 F51  0.0   0.0     200325 L01  0.0   0.1-    200325 033  0.3-  0.3-
    200323 F51  0.0   0.0     200325 113  0.3+  0.5-    200325 033  0.5+  0.3-
    200325 703  0.0   0.3-    200325 113  0.5+  0.0     200325 I93  0.0   0.2-
    200325 703  0.7-  0.0     200325 C43 (1.1+  1.7+)   200325 I93  0.1+  0.1-
    200325 703  1.2-  1.1-    200325 C43 (1.7+  1.2+)   200325 I93  0.1+  0.3-
    200325 703  1.2-  0.6+    200325 113  0.6+  0.4+    200325 A17  0.1-  0.3+
    200325 I52  0.4+  0.1+    200325 C43 (0.1+  1.6+)   200325 A17  0.1+  0.0
    200325 I52  0.0   0.4+    200325 C43 (0.5-  2.7+)   200325 A17  0.2+  0.5+
    200325 I52  0.2+  0.0     200325 113  0.3+  0.5-    200325 J95  0.3+  0.2+
    200325 I52  0.3+  0.1-    200325 246  0.8-  0.6+    200325 J95  0.0   0.1+
    200325 L01  0.3+  0.7-    200325 246  0.5-  1.0+    200325 J95  0.3-  0.4-
    200325 L01  0.6-  0.1+    200325 246  0.2+  0.5-    200325 J95  0.3+  0.2+
    
    Ephemeris:
    2020 FJ5                 a,e,i = 1.61, 0.39, 9                   q = 0.9805
    Date    TT    R. A. (2000) Decl.     Delta      r    Elong.  Phase     V
    2020 02 25    01 49 08.4 +63 04 27   0.1160  0.9801    81.9    91.4    24.5
    ...
    2020 03 11    03 24 13.1 +73 32 48   0.05244 0.9905    85.4    91.6    22.8
    ...
    2020 03 19    10 30 18.0 +60 29 35   0.02324 1.0067   117.9    60.9    20.0
    ...
    2020 03 25    12 09 15.8 -05 49 16   0.02592 1.0231   175.6     4.3    18.5
    2020 03 26    12 15 43.0 -12 46 51   0.02912 1.0262   169.4    10.3    19.0
    2020 03 27    12 21 04.9 -18 16 31   0.03271 1.0294   164.3    15.2    19.5
    ...
    2020 04 02    12 40 29.6 -34 46 31   0.05801 1.0502   150.1    28.3    21.2
    ...
    2020 04 10    12 52 12.6 -41 27 00   0.09557 1.0825   146.1    31.1    22.4
    ...
    2020 04 25    13 03 27.1 -43 33 55   0.1724  1.1536   146.3    28.9    23.8
    
    A. U. Tomatic                (C) Copyright 2020 MPC           M.P.E.C. 2020-F148
    


    Read MPEC 2020-F147 Read MPEC 2020-F149


    MPEC number:

    Enter an MPEC number in one of the following forms:

    • 1997-B01 (the full form)
    • J97B01 (the packed version of the full form)
    • B01 (the abbreviated form)